Main page


Airports :

Fasa, Iran

latitude: 28-58N, longitude: 053-41E, elevation: 1383 m

Current weather observation

The report was made 50 minutes ago, at 21:00 UTC
Wind 6 kt from the North/Northwest
Temperature 11°C
Humidity 40%
Pressure 1014 hPa
Visibility 10 km or more
no clouds below 1500 m and no cumulonimbus

METAR: OISF 222100Z 34006KT CAVOK 11/M02 Q1014

Time: 02:20 (21:50 UTC)

TAF: missing

Weather observations and forecasts of more than 4000 airports (METAR and TAF reports).

The available stations are represented by yellow and red dots on the map.

Hover mouse over dot to see the name of the station.

Then click to see weather observations and forecasts.

To change the map : click on the green buttons with a black cross to zoom in, on the green button with a dash to zoom out, or on the green arrows for adjacent maps.